Location: Ahstedt
(52.2048°N, 10.1060°E)
Time: 23:30:30
(UTC+00:00)

FengYun 1-2 T - Visible Passes

Search period start: 18 April 2026 00:00
Search period end: 28 April 2026 00:00
Orbit: 846 x 879 km, 98.8° (Epoch: 18 April)

Date Brightness Start Highest point End Pass type
(mag) Time Alt. Az. Time Alt. Az. Time Alt. Az.
18 Apr 7.0 02:23:34 10° NE 02:26:19 14° E 02:29:02 10° ESE visible
19 Apr 7.2 02:15:51 10° ENE 02:17:41 11° E 02:19:31 10° E visible
22 Apr 5.7 03:28:54 10° NNE 03:34:16 41° E 03:39:34 10° SSE visible
23 Apr 5.9 03:20:31 10° NNE 03:25:43 36° E 03:30:53 10° SSE visible
24 Apr 6.2 03:12:10 10° NNE 03:17:11 31° E 03:22:10 10° SSE visible
25 Apr 6.4 03:03:50 10° NE 03:08:38 27° E 03:13:23 10° SSE visible
26 Apr 6.6 02:55:32 10° NE 03:00:04 24° E 03:04:33 10° SE visible
27 Apr 6.8 02:47:17 10° NE 02:51:30 21° E 02:55:39 10° SE visible
